This is the latest recevied weather packets stored in our database for station/object KA3BQE-13. If no packets are shown the sender has not sent any weather packets the latest 10 day(s).
| Time | Temp. | Humidity | Pressure | Rain* | Wind** | Luminosity | Snow |
|---|---|---|---|---|---|---|---|
| 1777933029 | 23.89° C | 53% | 1003.6 hPa | 0 mm | - | 115 W/m² | - |
| 1777932726 | 23.89° C | 53% | 1003.5 hPa | 0 mm | - | 169 W/m² | - |
| 1777932422 | 23.89° C | 53% | 1003.5 hPa | 0 mm | - | 112 W/m² | - |
| 1777932120 | 23.89° C | 53% | 1003.7 hPa | 0 mm | - | 295 W/m² | - |
| 1777931816 | 24.44° C | 53% | 1003.6 hPa | 0 mm | - | 84 W/m² | - |
| 1777931514 | 24.44° C | 54% | 1003.5 hPa | 0 mm | - | 174 W/m² | - |
| 1777931209 | 23.89° C | 53% | 1003.7 hPa | 0 mm | - | 184 W/m² | - |
| 1777930906 | 24.44° C | 52% | 1003.4 hPa | 0 mm | - | 169 W/m² | - |
| 1777930602 | 25° C | 52% | 1003.7 hPa | 0 mm | - | 268 W/m² | - |
| 1777930299 | 25° C | 50% | 1003.7 hPa | 0 mm | - | 534 W/m² | - |
| 1777929996 | 25° C | 50% | 1003.7 hPa | 0 mm | - | 414 W/m² | - |
| 1777929692 | 25° C | 50% | 1003.7 hPa | 0 mm | - | 539 W/m² | - |
| 1777929390 | 25° C | 50% | 1003.8 hPa | 0 mm | - | 327 W/m² | - |
| 1777929086 | 23.89° C | 51% | 1004 hPa | 0 mm | - | 173 W/m² | - |
| 1777928784 | 24.44° C | 51% | 1004.1 hPa | 0 mm | - | 197 W/m² | - |
| 1777928480 | 24.44° C | 52% | 1003.8 hPa | 0 mm | - | 670 W/m² | - |
| 1777928178 | 25° C | 51% | 1003.8 hPa | 0 mm | - | 199 W/m² | - |
| 1777927876 | 23.89° C | 52% | 1003.9 hPa | 0 mm | - | 224 W/m² | - |
| 1777927574 | 24.44° C | 51% | 1003.9 hPa | 0 mm | - | 243 W/m² | - |
| 1777927273 | 24.44° C | 50% | 1003.7 hPa | 0 mm | - | 147 W/m² | - |
| 1777926971 | 25° C | 48% | 1003.7 hPa | 0 mm | - | 635 W/m² | - |
| 1777926668 | 25° C | 50% | 1003.9 hPa | 0 mm | - | 635 W/m² | - |
| 1777926363 | 25° C | 49% | 1004.1 hPa | 0 mm | - | 639 W/m² | - |
| 1777926060 | 25° C | 50% | 1004.1 hPa | 0 mm | - | 690 W/m² | - |
| 1777925756 | 24.44° C | 51% | 1004.1 hPa | 0 mm | - | 250 W/m² | - |
* Rain latest hour (hover to see other rain measurements)
** Current wind speed in m/s (hover to see current wind gust speed)